This is the latest recevied weather packets stored in our database for station/object W0AKY-13. If no packets are shown the sender has not sent any weather packets the latest 10 day(s).
| Time | Temp. | Humidity | Pressure | Rain* | Wind** | Luminosity | Snow |
|---|---|---|---|---|---|---|---|
| 1777590462 | 13.33° C | 52% | 1019.4 hPa | 0 mm | - | 77 W/m² | - |
| 1777590159 | 13.33° C | 51% | 1019.4 hPa | 0 mm | - | 89 W/m² | - |
| 1777589855 | 13.89° C | 50% | 1019.5 hPa | 0 mm | - | 147 W/m² | - |
| 1777589551 | 13.89° C | 52% | 1019.5 hPa | 0 mm | - | 92 W/m² | - |
| 1777589249 | 13.89° C | 50% | 1019.2 hPa | 0 mm | - | 88 W/m² | - |
| 1777588947 | 13.89° C | 48% | 1019.2 hPa | 0 mm | - | 76 W/m² | - |
| 1777588642 | 13.33° C | 50% | 1019.3 hPa | 0 mm | - | 116 W/m² | - |
| 1777588338 | 13.89° C | 51% | 1019.1 hPa | 0 mm | - | 88 W/m² | - |
| 1777588034 | 14.44° C | 48% | 1019.2 hPa | 0 mm | - | 75 W/m² | - |
| 1777587729 | 14.44° C | 50% | 1019.3 hPa | 0 mm | - | 350 W/m² | - |
| 1777587424 | 13.89° C | 50% | 1019.3 hPa | 0 mm | - | 116 W/m² | - |
| 1777587120 | 13.89° C | 51% | 1019.2 hPa | 0 mm | - | 136 W/m² | - |
| 1777586816 | 13.89° C | 50% | 1019.1 hPa | 0 mm | - | 121 W/m² | - |
| 1777586512 | 14.44° C | 48% | 1019.1 hPa | 0 mm | - | 110 W/m² | - |
| 1777586208 | 15.56° C | 45% | 1019.4 hPa | 0 mm | - | 147 W/m² | - |
| 1777585906 | 15.56° C | 48% | 1019.2 hPa | 0 mm | - | 402 W/m² | - |
| 1777585606 | 14.44° C | 50% | 1019.2 hPa | 0 mm | - | 172 W/m² | - |
| 1777585301 | 13.89° C | 49% | 1019 hPa | 0 mm | - | 129 W/m² | - |
| 1777584996 | 13.89° C | 49% | 1019.2 hPa | 0 mm | - | 104 W/m² | - |
| 1777584693 | 14.44° C | 46% | 1019.2 hPa | 0 mm | - | 99 W/m² | - |
| 1777584390 | 15° C | 46% | 1019.1 hPa | 0 mm | - | 173 W/m² | - |
| 1777584087 | 16.67° C | 44% | 1019.2 hPa | 0 mm | - | 330 W/m² | - |
| 1777583786 | 15° C | 43% | 1019.3 hPa | 0 mm | - | 551 W/m² | - |
| 1777583482 | 16.11° C | 45% | 1019.2 hPa | 0 mm | - | 159 W/m² | - |
| 1777583181 | 14.44° C | 46% | 1019.2 hPa | 0 mm | - | 497 W/m² | - |
* Rain latest hour (hover to see other rain measurements)
** Current wind speed in m/s (hover to see current wind gust speed)